Location: Allos
(44.2333°N, 6.6333°E)
Time: 18:11:38
(UTC+00:00)

CZ-4B R/B - Pass Details

Date: 01 December 2020
Orbit: 389 x 457 km, 97.6° (Epoch: 23 January)

Event Time Altitude Azimuth Distance (km) Brightness Sun altitude
Exits shadow 18:30:07 10° 321° (NW) 1,472 4.4 -27.0°
Reaches altitude 10° 18:30:08 10° 321° (NW) 1,467 4.4 -27.0°
Maximum altitude 18:31:32 13° 294° (WNW) 1,330 4.5 -27.2°
Drops below altitude 10° 18:32:56 10° 268° (W) 1,476 5.0 -27.5°
Sets 18:35:50 0° 237° (WSW) 2,349 6.0 -28.0°
